Location: *
(47.6569°N, 7.4256°E)
Time: 03:06:18
(UTC+00:00)

USA 215 - Pass Details

Date: 14 December 2019
Orbit: 1099 x 1109 km, 123.0° (Epoch: 03 January)

Event Time Altitude Azimuth Distance (km) Brightness Sun altitude
Exits shadow 19:41:58 34° 322° (NW) 1,738 4.5 -39.8°
Drops below altitude 10° 19:46:13 10° 289° (WNW) 2,965 6.2 -40.5°
Sets 19:48:51 0° 283° (WNW) 3,924 7.0 -40.9°
